EW4675 Weather Reports


time (UTC)temp
C
wind
direction
speed
KPH
gust
KPH
rain 1hr
cm
rain 24hr
cm
rain mn
cm
humidity
%
barometer
mb
20260506202004 15 314 3.2 14.5 0.00 0.51 0.51 91 1005.4
20260506201504 15 226 4.8 12.9 0.03 0.51 0.51 91 1005.4
20260506200503 15 307 3.2 9.7 0.05 0.51 0.51 91 1005.4
20260506200004 15 250 4.8 12.9 0.05 0.51 0.51 91 1005.4
20260506195505 15 197 3.2 14.5 0.05 0.51 0.51 91 1005.4
20260506195004 15 208 3.2 16.1 0.08 0.51 0.51 91 1005.4
20260506194503 15 228 1.6 11.3 0.10 0.51 0.51 91 1005.5
20260506194004 15 251 4.8 9.7 0.13 0.51 0.51 91 1005.6
20260506193504 15 266 1.6 8.0 0.15 0.51 0.51 91 1005.9
20260506193004 15 187 3.2 12.9 0.18 0.51 0.51 91 1005.9
20260506192504 15 208 3.2 9.7 0.18 0.51 0.51 91 1006.0
20260506192003 15 300 4.8 24.1 0.18 0.51 0.51 91 1006.1
20260506191503 15 220 3.2 11.3 0.18 0.48 0.48 91 1006.0
20260506190505 15 209 3.2 9.7 0.18 0.46 0.46 91 1006.1
20260506190005 15 229 3.2 9.7 0.18 0.46 0.46 91 1006.0
20260506185503 15 221 4.8 14.5 0.18 0.46 0.46 91 1006.2
20260506185004 15 286 3.2 9.7 0.18 0.43 0.43 91 1006.1
20260506184504 15 184 4.8 11.3 0.15 0.41 0.41 91 1006.2
20260506183504 15 183 1.6 4.8 0.10 0.36 0.36 91 1006.3
20260506183004 15 267 3.2 9.7 0.08 0.33 0.33 91 1006.2
20260506182003 15 251 3.2 12.9 0.08 0.33 0.33 90 1006.3
20260506181004 15 233 3.2 8.0 0.05 0.30 0.30 90 1006.4
20260506180504 15 251 4.8 12.9 0.03 0.28 0.28 90 1006.5
20260506180005 15 295 3.2 8.0 0.05 0.28 0.28 90 1006.4
20260506175504 15 287 4.8 14.5 0.05 0.28 0.28 90 1006.4
20260506175004 15 220 3.2 11.3 0.03 0.25 0.25 90 1006.6
20260506174504 15 229 4.8 9.7 0.03 0.25 0.25 90 1006.7
20260506174004 15 223 8.0 11.3 0.05 0.25 0.25 90 1006.5
20260506172504 15 210 1.6 11.3 0.08 0.25 0.25 89 1006.5
20260506171004 15 224 3.2 11.3 0.13 0.25 0.25 89 1006.4
20260506170504 15 285 4.8 12.9 0.15 0.25 0.25 89 1006.5
20260506170002 15 213 3.2 12.9 0.13 0.23 0.23 89 1006.5
20260506165502 15 167 3.2 11.3 0.15 0.23 0.23 89 1006.2
20260506165003 15 185 4.8 14.5 0.15 0.23 0.23 89 1006.2
20260506164502 15 198 4.8 16.1 0.18 0.23 0.23 88 1006.5
20260506164003 15 160 9.7 16.1 0.15 0.20 0.20 89 1006.5
20260506163502 15 151 1.6 4.8 0.15 0.20 0.20 89 1006.5
20260506162003 16 184 6.4 19.3 0.15 0.18 0.18 88 1006.9
20260506161502 16 201 3.2 9.7 0.13 0.15 0.15 88 1007.0
20260506161002 16 168 4.8 11.3 0.13 0.13 0.13 87 1007.2
20260506160507 16 198 3.2 11.3 0.10 0.10 0.10 87 1007.3
20260506160002 16 194 8.0 16.1 0.10 0.10 0.10 86 1007.4
20260506155503 16 182 4.8 11.3 0.08 0.08 0.08 86 1007.5
20260506155002 16 223 3.2 9.7 0.08 0.08 0.08 86 1007.6
20260506154502 16 187 3.2 8.0 0.05 0.05 0.05 86 1007.5
20260506154003 16 217 3.2 9.7 0.05 0.05 0.05 86 1007.4
20260506153502 16 187 3.2 8.0 0.05 0.05 0.05 86 1007.4
20260506152502 16 193 3.2 4.8 0.05 0.05 0.05 85 1007.3
20260506152003 16 172 3.2 9.7 0.03 0.03 0.03 84 1007.4
20260506151503 16 174 4.8 11.3 0.03 0.03 0.03 83 1007.4
20260506151002 17 201 1.6 8.0 0.00 0.00 0.00 82 1007.6
20260506150502 17 171 4.8 9.7 0.00 0.00 0.00 81 1007.5
20260506150003 17 189 3.2 4.8 0.00 0.00 0.00 80 1007.7
20260506145502 17 165 4.8 12.9 0.00 0.00 0.00 79 1007.8
20260506145002 17 206 4.8 9.7 0.00 0.00 0.00 78 1007.8
20260506144503 17 238 8.0 12.9 0.00 0.00 0.00 78 1007.8
20260506144002 17 206 3.2 12.9 0.00 0.00 0.00 77 1007.6
20260506143503 17 172 3.2 14.5 0.00 0.00 0.00 77 1007.7
20260506143002 17 225 4.8 20.9 0.00 0.00 0.00 77 1007.7
20260506142503 17 214 4.8 12.9 0.00 0.00 0.00 77 1007.6
20260506142002 17 202 6.4 12.9 0.00 0.00 0.00 77 1007.6
20260506141503 17 176 3.2 9.7 0.00 0.00 0.00 77 1007.5
20260506141003 17 250 3.2 14.5 0.00 0.00 0.00 77 1007.6
20260506140503 17 197 1.6 14.5 0.00 0.00 0.00 77 1007.6
20260506140002 17 174 3.2 16.1 0.00 0.00 0.00 76 1007.5
20260506135002 17 225 3.2 14.5 0.00 0.00 0.00 76 1007.7
20260506134503 17 269 3.2 11.3 0.00 0.00 0.00 76 1007.7
20260506133503 17 159 6.4 16.1 0.00 0.00 0.00 75 1007.7
20260506133003 17 190 8.0 20.9 0.00 0.00 0.00 75 1007.8
20260506132502 17 160 8.0 24.1 0.00 0.00 0.00 75 1007.8
20260506132003 17 204 6.4 19.3 0.00 0.00 0.00 75 1007.8
20260506131503 18 239 6.4 14.5 0.00 0.00 0.00 75 1007.7
20260506131003 17 234 6.4 14.5 0.00 0.00 0.00 76 1007.3
20260506130503 17 174 6.4 19.3 0.00 0.00 0.00 76 1007.6
20260506130003 17 143 6.4 12.9 0.00 0.00 0.00 76 1007.6
20260506125503 17 193 4.8 14.5 0.00 0.00 0.00 76 1007.7
20260506125002 17 175 4.8 9.7 0.00 0.00 0.00 76 1007.6
20260506124502 17 195 1.6 16.1 0.00 0.00 0.00 77 1007.5
20260506124002 17 194 4.8 12.9 0.00 0.00 0.00 77 1007.5
20260506123503 17 222 8.0 14.5 0.00 0.00 0.00 77 1007.4
20260506123002 17 167 6.4 14.5 0.00 0.00 0.00 77 1007.5
20260506122503 17 171 6.4 11.3 0.00 0.00 0.00 78 1007.5
20260506122003 17 189 4.8 11.3 0.00 0.00 0.00 78 1007.5
20260506121502 17 213 3.2 19.3 0.00 0.00 0.00 78 1007.7
20260506121003 17 166 4.8 19.3 0.00 0.00 0.00 78 1007.6
20260506120502 17 226 4.8 9.7 0.00 0.00 0.00 79 1007.7
20260506115503 17 150 4.8 11.3 0.00 0.00 0.00 79 1007.9
20260506115003 17 166 3.2 12.9 0.00 0.00 0.00 79 1007.7
20260506114502 17 178 4.8 16.1 0.00 0.00 0.00 79 1007.9
20260506114003 16 230 3.2 14.5 0.00 0.00 0.00 79 1007.8
20260506113503 16 182 8.0 19.3 0.00 0.00 0.00 79 1007.8
20260506112503 16 178 8.0 19.3 0.00 0.00 0.00 79 1007.9
20260506112003 16 134 4.8 9.7 0.00 0.00 0.00 79 1007.6
20260506111502 16 160 3.2 8.0 0.00 0.00 0.00 80 1007.8
20260506111003 16 158 4.8 9.7 0.00 0.00 0.00 80 1007.7
20260506110502 16 183 3.2 11.3 0.00 0.00 0.00 80 1007.6
20260506110002 16 174 3.2 12.9 0.00 0.00 0.00 80 1007.7
20260506105503 16 151 4.8 11.3 0.00 0.00 0.00 80 1007.6
20260506105002 16 180 3.2 9.7 0.00 0.00 0.00 80 1007.6
20260506104503 16 157 8.0 16.1 0.00 0.00 0.00 80 1007.5
20260506103503 16 169 3.2 14.5 0.00 0.00 0.00 80 1007.3
20260506103002 16 161 8.0 20.9 0.00 0.00 0.00 80 1007.5
20260506102502 16 214 6.4 11.3 0.00 0.00 0.00 80 1007.5
20260506102002 16 189 9.7 19.3 0.00 0.00 0.00 80 1007.5
20260506101003 16 185 6.4 20.9 0.00 0.00 0.00 80 1007.2
20260506100502 16 211 4.8 12.9 0.00 0.00 0.00 80 1007.2
20260506100004 16 170 8.0 14.5 0.00 0.00 0.00 80 1007.4
20260506095502 16 174 6.4 16.1 0.00 0.00 0.00 80 1007.5
20260506095003 16 176 8.0 19.3 0.00 0.00 0.00 80 1007.3
20260506094502 16 185 3.2 12.9 0.00 0.00 0.00 80 1007.2
20260506094003 16 145 3.2 12.9 0.00 0.00 0.00 79 1007.2
20260506092503 17 156 8.0 16.1 0.00 0.00 0.00 78 1007.4
20260506092002 17 173 4.8 11.3 0.00 0.00 0.00 78 1007.4
20260506091503 17 142 4.8 11.3 0.00 0.00 0.00 78 1007.4
20260506091003 17 158 4.8 11.3 0.00 0.00 0.00 78 1007.4
20260506090503 17 144 4.8 16.1 0.00 0.00 0.00 78 1007.5
20260506090003 17 181 6.4 19.3 0.00 0.00 0.00 78 1007.4
20260506085003 17 184 4.8 12.9 0.00 0.00 0.00 77 1007.6
20260506084502 17 163 4.8 14.5 0.00 0.00 0.00 76 1007.6
20260506084003 17 177 6.4 14.5 0.00 0.00 0.00 76 1007.6
20260506083503 17 163 4.8 14.5 0.00 0.00 0.00 76 1007.6
20260506082502 17 162 4.8 16.1 0.00 0.00 0.00 75 1007.6
20260506081002 17 164 6.4 16.1 0.00 0.00 0.00 73 1007.7
20260506073503 18 194 3.2 8.0 0.00 0.00 0.00 70 1007.9
20260506073003 18 213 4.8 9.7 0.00 0.00 0.00 70 1007.8
20260506072502 18 209 4.8 14.5 0.00 0.00 0.00 69 1007.9
20260506072006 18 155 4.8 16.1 0.00 0.00 0.00 69 1008.0
20260506071002 18 263 4.8 16.1 0.00 0.00 0.00 68 1007.9
20260506070502 18 212 4.8 19.3 0.00 0.00 0.00 67 1007.8
20260506062502 18 176 4.8 12.9 0.00 0.00 0.00 65 1008.3
20260506062003 18 203 4.8 14.5 0.00 0.00 0.00 64 1008.3
20260506061503 18 175 4.8 12.9 0.00 0.00 0.00 64 1008.4
20260506061003 18 306 4.8 14.5 0.00 0.00 0.00 64 1008.2
20260506060503 18 176 8.0 16.1 0.00 0.00 0.00 64 1008.3
20260506051002 19 190 4.8 11.3 0.00 0.00 0.00 63 1008.6
20260506050503 19 188 4.8 16.1 0.00 0.00 0.00 63 1008.5
20260506045002 19 200 8.0 27.4 0.00 0.00 0.00 63 1008.7
20260506044503 19 194 8.0 14.5 0.00 0.00 0.00 63 1008.8
20260506043503 19 186 9.7 25.7 0.00 0.00 0.00 63 1008.6
20260506043002 19 232 4.8 19.3 0.00 0.00 0.00 63 1008.5
20260506042503 19 188 6.4 14.5 0.00 0.00 0.00 63 1008.5
20260506042003 19 168 4.8 16.1 0.00 0.00 0.00 63 1008.5
20260506041502 19 181 12.9 32.2 0.00 0.00 0.00 62 1008.6
20260506040503 19 187 8.0 19.3 0.00 0.00 0.00 62 1008.6
20260506040002 19 179 8.0 22.5 0.00 0.00 0.00 62 1008.6
20260506035503 19 151 8.0 14.5 0.00 0.00 0.00 62 1008.5
20260506035003 19 131 8.0 27.4 0.00 0.00 0.00 62 1008.6
20260506034503 19 175 9.7 14.5 0.00 0.00 0.00 62 1008.5
20260506034003 20 173 4.8 16.1 0.00 0.00 0.00 61 1008.5
20260506033503 20 197 9.7 19.3 0.00 0.00 0.00 60 1008.6
20260506033003 20 174 4.8 19.3 0.00 0.00 0.00 60 1008.6
20260506032503 20 195 8.0 14.5 0.00 0.00 0.00 59 1008.6
20260506032003 20 195 8.0 16.1 0.00 0.00 0.00 58 1008.6
20260506031503 20 148 6.4 14.5 0.00 0.00 0.00 57 1008.5
20260506031003 20 189 9.7 16.1 0.00 0.00 0.00 56 1008.6
20260506030002 20 166 3.2 19.3 0.00 0.00 0.00 55 1008.5
20260506025503 20 190 6.4 12.9 0.00 0.00 0.00 54 1008.6
20260506025002 20 188 8.0 24.1 0.00 0.00 0.00 53 1008.5
20260506024507 21 162 6.4 12.9 0.00 0.00 0.00 53 1008.4
20260506024002 21 166 9.7 22.5 0.00 0.00 0.00 52 1008.5
20260506023503 21 186 4.8 11.3 0.00 0.00 0.00 51 1008.6
20260506023006 21 177 4.8 14.5 0.00 0.00 0.00 51 1008.6
20260506022003 21 155 4.8 19.3 0.00 0.00 0.00 50 1008.4
20260506020502 21 173 4.8 14.5 0.00 0.00 0.00 49 1008.5
20260506015503 22 191 4.8 19.3 0.00 0.00 0.00 48 1008.5
20260506015002 22 137 4.8 14.5 0.00 0.00 0.00 48 1008.5
20260506014503 22 202 6.4 14.5 0.00 0.00 0.00 48 1008.4
20260506013502 22 232 4.8 12.9 0.00 0.00 0.00 48 1008.5
20260506013003 22 213 3.2 8.0 0.00 0.00 0.00 48 1008.4
20260506012502 22 164 6.4 19.3 0.00 0.00 0.00 48 1008.3
20260506012003 22 180 8.0 16.1 0.00 0.00 0.00 47 1008.3
20260506011503 22 203 8.0 14.5 0.00 0.00 0.00 47 1008.2
20260506011002 22 114 4.8 11.3 0.00 0.00 0.00 46 1008.3
20260506010503 22 221 3.2 19.3 0.00 0.00 0.00 46 1008.1
20260506005503 22 245 6.4 14.5 0.00 0.00 0.00 44 1008.1
20260506004002 22 214 6.4 12.9 0.00 0.00 0.00 42 1008.0
20260506003505 23 163 3.2 8.0 0.00 0.00 0.00 42 1007.9
20260506003002 23 193 4.8 9.7 0.00 0.00 0.00 42 1007.8
20260506002503 23 165 4.8 16.1 0.00 0.00 0.00 42 1007.8
20260506002003 23 133 4.8 19.3 0.00 0.00 0.00 41 1007.7
20260506001504 23 207 4.8 11.3 0.00 0.00 0.00 41 1007.7
20260506001002 23 170 3.2 9.7 0.00 0.00 0.00 41 1007.6
20260506000503 23 191 1.6 11.3 0.00 0.00 0.00 41 1007.6
20260506000003 23 176 4.8 9.7 0.00 0.00 0.00 40 1007.5
20260505235502 23 181 4.8 16.1 0.00 0.00 0.00 40 1007.7
20260505234003 23 210 4.8 16.1 0.00 0.00 0.00 39 1007.5
20260505233503 23 199 4.8 11.3 0.00 0.00 0.00 39 1007.6
20260505232502 23 134 6.4 14.5 0.00 0.00 0.00 38 1007.5
20260505232003 24 221 4.8 14.5 0.00 0.00 0.00 38 1007.6
20260505231503 24 219 4.8 12.9 0.00 0.00 0.00 38 1007.5
20260505231003 24 185 4.8 9.7 0.00 0.00 0.00 38 1007.4
20260505230503 24 317 1.6 16.1 0.00 0.00 0.00 38 1007.3
20260505230002 24 235 4.8 14.5 0.00 0.00 0.00 37 1007.4
20260505225503 24 266 4.8 12.9 0.00 0.00 0.00 37 1007.4
20260505225003 24 239 6.4 19.3 0.00 0.00 0.00 37 1007.4
20260505224502 25 202 8.0 19.3 0.00 0.00 0.00 37 1007.2
20260505224003 25 244 8.0 16.1 0.00 0.00 0.00 36 1007.2
20260505223502 25 233 4.8 14.5 0.00 0.00 0.00 36 1007.3
20260505223003 25 223 4.8 9.7 0.00 0.00 0.00 36 1007.1
20260505222502 25 304 9.7 20.9 0.00 0.00 0.00 35 1007.0
20260505222003 25 259 8.0 16.1 0.00 0.00 0.00 35 1007.1
20260505221503 25 279 8.0 19.3 0.00 0.00 0.00 35 1007.0
20260505221002 26 260 3.2 9.7 0.00 0.00 0.00 35 1006.9
20260505220502 26 222 6.4 22.5 0.00 0.00 0.00 35 1007.0
20260505220002 26 205 4.8 19.3 0.00 0.00 0.00 34 1007.0
20260505215502 26 242 8.0 22.5 0.00 0.00 0.00 34 1006.9
20260505215003 26 196 8.0 20.9 0.00 0.00 0.00 34 1006.7
20260505214502 26 224 11.3 29.0 0.00 0.00 0.00 33 1006.7
20260505213503 26 244 11.3 27.4 0.00 0.00 0.00 34 1006.8
20260505212503 26 252 9.7 24.1 0.00 0.00 0.00 33 1006.7
20260505211502 26 198 9.7 22.5 0.00 0.00 0.00 33 1006.8
20260505211003 26 221 4.8 14.5 0.00 0.00 0.00 34 1006.7
20260505210502 26 150 3.2 11.3 0.00 0.00 0.00 33 1006.4
20260505210003 26 183 8.0 19.3 0.00 0.00 0.00 32 1006.5
20260505205506 26 192 4.8 16.1 0.00 0.00 0.00 32 1006.3
20260505204503 27 259 9.7 19.3 0.00 0.00 0.00 31 1006.4
20260505204003 27 267 9.7 25.7 0.00 0.00 0.00 32 1006.3
20260505203505 27 239 6.4 19.3 0.00 0.00 0.00 33 1006.3
20260505203003 27 186 4.8 19.3 0.00 0.00 0.00 33 1006.5
20260505202503 26 248 4.8 27.4 0.00 0.00 0.00 32 1006.5